sat.trackr.live / text

‹ back to catalog

BB4

NORAD 57757 · 2023-133B

PAYLOAD ACTIVE UNKNOWN

§ Identity

Operator
Country
US
Launch date
2023-09-02
Launch site
AFWTR
Launch vehicle
Mass (kg)
RCS (m²)

External: N2YO · Heavens-Above · Gunter

§ Orbital elements

Epoch: 2026-05-24T21:51:41.309856Z

Period
100.81 min
Inclination
81.0016°
Eccentricity
0.0009540
Mean motion
14.28448390 rev/d
Perigee alt
790.1 km
Apogee alt
803.8 km
Semi-major
7,175.1 km
B*
1.5483e-4
RAAN
24.1647°
Arg perigee
46.0332°
Mean anomaly
314.1633°
Rev number
13,813

§ Raw data

BB41 57757U 23133B   26144.91089479  .00000400  00000+0  15483-3 0  99942 57757  81.0016  24.1647 0009540  46.0332 314.1633 14.28448390138139

JSON: /api/v1/satellites/57757 · /tle

For live sub-satellite position, see the globe view (requires WebGL).

§ Visibility from observer

Set your observer location to see the next 7 days of passes ≥ 10°. The values pass through the URL so the page stays shareable.

No JS? Fill the form by hand. The geolocation button needs JavaScript.